| time (UTC) | temp F | wind direction | speed knots | gust knots | rain 1hr in | rain 24hr in | rain mn in | humidity % | barometer mb |
| 20260510223909 | 59 | 269 | 1.7 | 3.5 | 0.00 | 0.00 | 0.00 | 34 | 1017.4 |
| 20260510223407 | 59 | 278 | 2.6 | 5.2 | 0.00 | 0.00 | 0.00 | 34 | 1017.3 |
| 20260510222904 | 60 | 281 | 2.6 | 3.5 | 0.00 | 0.00 | 0.00 | 34 | 1017.5 |
| 20260510222402 | 60 | 345 | 2.6 | 3.5 | 0.00 | 0.00 | 0.00 | 34 | 1017.4 |
| 20260510221856 | 59 | 41 | 2.6 | 5.2 | 0.00 | 0.00 | 0.00 | 36 | 1017.2 |
| 20260510221353 | 59 | 29 | 3.5 | 6.1 | 0.00 | 0.00 | 0.00 | 33 | 1017.1 |
| 20260510220849 | 60 | 59 | 1.7 | 5.2 | 0.00 | 0.00 | 0.00 | 34 | 1017.2 |
| 20260510220346 | 60 | 45 | 1.7 | 3.5 | 0.00 | 0.00 | 0.00 | 36 | 1017.0 |
| 20260510215842 | 61 | 312 | 6.1 | 7.8 | 0.00 | 0.00 | 0.00 | 32 | 1017.0 |
| 20260510215339 | 61 | 318 | 3.5 | 6.1 | 0.00 | 0.00 | 0.00 | 35 | 1016.7 |
| 20260510214837 | 61 | 20 | 5.2 | 7.8 | 0.00 | 0.00 | 0.00 | 32 | 1016.8 |
| 20260510214334 | 61 | 269 | 1.7 | 2.6 | 0.00 | 0.00 | 0.00 | 35 | 1017.0 |
| 20260510213831 | 60 | 23 | 3.5 | 3.5 | 0.00 | 0.00 | 0.00 | 33 | 1016.9 |
| 20260510213327 | 59 | 43 | 2.6 | 3.5 | 0.00 | 0.00 | 0.00 | 37 | 1016.6 |
| 20260510212824 | 59 | 36 | 2.6 | 3.5 | 0.00 | 0.00 | 0.00 | 36 | 1016.7 |
| 20260510212321 | 59 | 29 | 2.6 | 2.6 | 0.00 | 0.00 | 0.00 | 36 | 1016.5 |
| 20260510211818 | 60 | 341 | 5.2 | 6.1 | 0.00 | 0.00 | 0.00 | 35 | 1016.4 |
| 20260510211314 | 60 | 13 | 5.2 | 7.0 | 0.00 | 0.00 | 0.00 | 35 | 1016.2 |
| 20260510210810 | 61 | 342 | 3.5 | 7.0 | 0.00 | 0.00 | 0.00 | 34 | 1016.4 |
| 20260510210310 | 61 | 263 | 0.9 | 2.6 | 0.00 | 0.00 | 0.00 | 33 | 1016.4 |
| 20260510205809 | 60 | 303 | 3.5 | 6.1 | 0.00 | 0.00 | 0.00 | 34 | 1016.5 |
| 20260510205306 | 60 | 319 | 5.2 | 7.0 | 0.00 | 0.00 | 0.00 | 35 | 1016.6 |
| 20260510204801 | 60 | 321 | 4.3 | 7.0 | 0.00 | 0.00 | 0.00 | 34 | 1016.3 |
| 20260510204258 | 60 | 289 | 4.3 | 9.6 | 0.00 | 0.00 | 0.00 | 35 | 1016.7 |
| 20260510203755 | 60 | 36 | 4.3 | 7.8 | 0.00 | 0.00 | 0.00 | 34 | 1016.5 |
| 20260510203253 | 59 | 45 | 1.7 | 3.5 | 0.00 | 0.00 | 0.00 | 36 | 1016.6 |
| 20260510202752 | 59 | 4 | 7.0 | 7.8 | 0.00 | 0.00 | 0.00 | 35 | 1016.8 |
| 20260510202248 | 60 | 338 | 6.1 | 7.8 | 0.00 | 0.00 | 0.00 | 36 | 1016.7 |
| 20260510201745 | 60 | 319 | 4.3 | 8.7 | 0.00 | 0.00 | 0.00 | 39 | 1016.6 |
| 20260510201242 | 60 | 23 | 3.5 | 7.0 | 0.00 | 0.00 | 0.00 | 36 | 1016.9 |
| 20260510200738 | 60 | 26 | 3.5 | 6.1 | 0.00 | 0.00 | 0.00 | 35 | 1016.8 |
| 20260510200236 | 60 | 264 | 3.5 | 5.2 | 0.00 | 0.00 | 0.00 | 33 | 1016.8 |
| 20260510195733 | 60 | 350 | 5.2 | 8.7 | 0.00 | 0.00 | 0.00 | 34 | 1016.9 |
| 20260510195229 | 60 | 38 | 3.5 | 7.0 | 0.00 | 0.00 | 0.00 | 34 | 1016.8 |
| 20260510194729 | 60 | 235 | 0.9 | 5.2 | 0.00 | 0.00 | 0.00 | 34 | 1016.7 |
| 20260510194226 | 60 | 261 | 4.3 | 8.7 | 0.00 | 0.00 | 0.00 | 35 | 1016.9 |
| 20260510193721 | 60 | 304 | 2.6 | 6.1 | 0.00 | 0.00 | 0.00 | 34 | 1016.9 |
| 20260510193216 | 60 | 16 | 5.2 | 12.2 | 0.00 | 0.00 | 0.00 | 33 | 1017.0 |
| 20260510192712 | 60 | 327 | 6.1 | 7.8 | 0.00 | 0.00 | 0.00 | 35 | 1017.1 |
| 20260510192208 | 60 | 320 | 4.3 | 7.0 | 0.00 | 0.00 | 0.00 | 37 | 1016.8 |
| 20260510191703 | 60 | 358 | 5.2 | 9.6 | 0.00 | 0.00 | 0.00 | 37 | 1016.7 |
| 20260510191200 | 59 | 272 | 3.5 | 6.1 | 0.00 | 0.00 | 0.00 | 35 | 1016.9 |
| 20260510190658 | 59 | 348 | 5.2 | 7.8 | 0.00 | 0.00 | 0.00 | 33 | 1017.0 |
| 20260510190155 | 59 | 304 | 4.3 | 8.7 | 0.00 | 0.00 | 0.00 | 31 | 1016.9 |
| 20260510185652 | 59 | 301 | 8.7 | 11.3 | 0.00 | 0.00 | 0.00 | 35 | 1016.8 |
| 20260510185150 | 59 | 338 | 5.2 | 7.8 | 0.00 | 0.00 | 0.00 | 35 | 1017.0 |
| 20260510184646 | 59 | 216 | 3.5 | 8.7 | 0.00 | 0.00 | 0.00 | 32 | 1017.1 |
| 20260510184142 | 58 | 25 | 3.5 | 6.1 | 0.00 | 0.00 | 0.00 | 33 | 1016.9 |
| 20260510183637 | 59 | 37 | 6.1 | 12.2 | 0.00 | 0.00 | 0.00 | 32 | 1016.8 |
| 20260510183133 | 59 | 7 | 7.8 | 9.6 | 0.00 | 0.00 | 0.00 | 34 | 1016.9 |
| 20260510182630 | 59 | 350 | 4.3 | 6.1 | 0.00 | 0.00 | 0.00 | 34 | 1016.9 |
| 20260510182125 | 58 | 351 | 8.7 | 9.6 | 0.00 | 0.00 | 0.00 | 36 | 1016.9 |
| 20260510181623 | 58 | 358 | 7.0 | 8.7 | 0.00 | 0.00 | 0.00 | 34 | 1017.0 |
| 20260510181119 | 58 | 339 | 4.3 | 7.0 | 0.00 | 0.00 | 0.00 | 33 | 1016.8 |
| 20260510180615 | 58 | 329 | 9.6 | 14.8 | 0.00 | 0.00 | 0.00 | 32 | 1016.6 |
| 20260510180113 | 58 | 297 | 3.5 | 8.7 | 0.00 | 0.00 | 0.00 | 35 | 1016.7 |
| 20260510175609 | 58 | 348 | 7.0 | 12.2 | 0.00 | 0.00 | 0.00 | 37 | 1016.6 |
| 20260510175104 | 58 | 327 | 3.5 | 6.1 | 0.00 | 0.00 | 0.00 | 36 | 1016.7 |
| 20260510174603 | 58 | 247 | 1.7 | 3.5 | 0.00 | 0.00 | 0.00 | 38 | 1016.8 |
| 20260510174059 | 57 | 284 | 4.3 | 8.7 | 0.00 | 0.00 | 0.00 | 36 | 1016.6 |
| 20260510173555 | 58 | 304 | 2.6 | 6.1 | 0.00 | 0.00 | 0.00 | 37 | 1016.8 |
| 20260510173052 | 58 | 314 | 7.8 | 12.2 | 0.00 | 0.00 | 0.00 | 37 | 1016.7 |
| 20260510172548 | 58 | 356 | 2.6 | 7.0 | 0.00 | 0.00 | 0.00 | 39 | 1016.5 |
| 20260510172044 | 58 | 314 | 4.3 | 6.1 | 0.00 | 0.00 | 0.00 | 38 | 1016.8 |
| 20260510171541 | 58 | 325 | 3.5 | 5.2 | 0.00 | 0.00 | 0.00 | 39 | 1016.8 |
| 20260510171038 | 58 | 298 | 5.2 | 7.8 | 0.00 | 0.00 | 0.00 | 43 | 1016.7 |
| 20260510170534 | 58 | 340 | 4.3 | 7.8 | 0.00 | 0.00 | 0.00 | 44 | 1016.7 |
| 20260510170031 | 58 | 303 | 4.3 | 6.1 | 0.00 | 0.00 | 0.00 | 41 | 1016.7 |
| 20260510165526 | 58 | 1 | 3.5 | 6.1 | 0.00 | 0.00 | 0.00 | 41 | 1016.8 |
| 20260510165023 | 57 | 288 | 2.6 | 7.0 | 0.00 | 0.00 | 0.00 | 39 | 1016.8 |
| 20260510164520 | 57 | 282 | 2.6 | 5.2 | 0.00 | 0.00 | 0.00 | 36 | 1016.9 |
| 20260510164017 | 58 | 343 | 3.5 | 5.2 | 0.00 | 0.00 | 0.00 | 43 | 1016.9 |
| 20260510163512 | 58 | 21 | 4.3 | 8.7 | 0.00 | 0.00 | 0.00 | 42 | 1016.7 |
| 20260510163008 | 57 | 209 | 0.9 | 2.6 | 0.00 | 0.00 | 0.00 | 41 | 1017.0 |
| 20260510162504 | 57 | 90 | 1.7 | 6.1 | 0.00 | 0.00 | 0.00 | 38 | 1016.6 |
| 20260510162000 | 57 | 303 | 1.7 | 6.1 | 0.00 | 0.00 | 0.00 | 39 | 1016.6 |
| 20260510161456 | 57 | 350 | 7.8 | 9.6 | 0.00 | 0.00 | 0.00 | 42 | 1016.8 |
| 20260510160953 | 57 | 31 | 3.5 | 3.5 | 0.00 | 0.00 | 0.00 | 45 | 1016.6 |
| 20260510160451 | 57 | 68 | 1.7 | 2.6 | 0.00 | 0.00 | 0.00 | 44 | 1016.5 |
| 20260510155948 | 57 | 33 | 3.5 | 5.2 | 0.00 | 0.00 | 0.00 | 46 | 1016.6 |
| 20260510155446 | 57 | 340 | 0.0 | 3.5 | 0.00 | 0.00 | 0.00 | 40 | 1016.4 |
| 20260510154943 | 57 | 338 | 2.6 | 5.2 | 0.00 | 0.00 | 0.00 | 45 | 1016.2 |
| 20260510154439 | 56 | 283 | 4.3 | 5.2 | 0.00 | 0.00 | 0.00 | 42 | 1016.4 |
| 20260510153937 | 55 | 8 | 4.3 | 6.1 | 0.00 | 0.00 | 0.00 | 48 | 1016.2 |
| 20260510153435 | 55 | 359 | 7.0 | 7.8 | 0.00 | 0.00 | 0.00 | 53 | 1015.9 |
| 20260510152931 | 55 | 34 | 3.5 | 8.7 | 0.00 | 0.00 | 0.00 | 49 | 1015.8 |
| 20260510152429 | 55 | 47 | 1.7 | 3.5 | 0.00 | 0.00 | 0.00 | 50 | 1016.1 |
| 20260510151925 | 55 | 29 | 4.3 | 5.2 | 0.00 | 0.00 | 0.00 | 52 | 1015.8 |
| 20260510151422 | 55 | 69 | 4.3 | 5.2 | 0.00 | 0.00 | 0.00 | 51 | 1016.1 |
| 20260510150918 | 54 | 28 | 4.3 | 6.1 | 0.00 | 0.00 | 0.00 | 53 | 1015.9 |
| 20260510150414 | 55 | 58 | 1.7 | 8.7 | 0.00 | 0.00 | 0.00 | 54 | 1016.1 |
| 20260510145910 | 54 | 115 | 1.7 | 3.5 | 0.00 | 0.00 | 0.00 | 52 | 1015.9 |
| 20260510145407 | 54 | 17 | 6.1 | 7.0 | 0.00 | 0.00 | 0.00 | 56 | 1015.7 |
| 20260510144903 | 55 | 25 | 6.1 | 7.8 | 0.00 | 0.00 | 0.00 | 54 | 1015.8 |
| 20260510144400 | 53 | 0 | 3.5 | 7.0 | 0.00 | 0.00 | 0.00 | 54 | 1015.8 |
| 20260510143855 | 54 | 9 | 5.2 | 7.0 | 0.00 | 0.00 | 0.00 | 53 | 1015.5 |
| 20260510143351 | 54 | 27 | 6.1 | 8.7 | 0.00 | 0.00 | 0.00 | 53 | 1015.5 |
| 20260510142848 | 54 | 58 | 7.8 | 7.8 | 0.00 | 0.00 | 0.00 | 55 | 1015.4 |
| 20260510142344 | 54 | 43 | 4.3 | 7.8 | 0.00 | 0.00 | 0.00 | 54 | 1015.4 |
| 20260510141841 | 54 | 38 | 5.2 | 7.0 | 0.00 | 0.00 | 0.00 | 57 | 1015.2 |
| 20260510141339 | 53 | 9 | 2.6 | 7.0 | 0.00 | 0.00 | 0.00 | 57 | 1015.4 |
| 20260510140836 | 54 | 24 | 6.1 | 7.8 | 0.00 | 0.00 | 0.00 | 54 | 1015.5 |
| 20260510140332 | 53 | 18 | 5.2 | 7.0 | 0.00 | 0.00 | 0.00 | 54 | 1015.5 |
| 20260510135831 | 53 | 28 | 6.1 | 9.6 | 0.00 | 0.00 | 0.00 | 52 | 1015.5 |
| 20260510135327 | 53 | 19 | 3.5 | 5.2 | 0.00 | 0.00 | 0.00 | 53 | 1015.7 |
| 20260510134825 | 53 | 47 | 3.5 | 5.2 | 0.00 | 0.00 | 0.00 | 55 | 1015.7 |
| 20260510134322 | 53 | 69 | 5.2 | 6.1 | 0.00 | 0.00 | 0.00 | 52 | 1015.6 |
| 20260510133817 | 53 | 87 | 1.7 | 7.0 | 0.00 | 0.00 | 0.00 | 51 | 1015.6 |
| 20260510133314 | 52 | 345 | 2.6 | 3.5 | 0.00 | 0.00 | 0.00 | 53 | 1015.6 |
| 20260510132809 | 52 | 17 | 4.3 | 7.0 | 0.00 | 0.00 | 0.00 | 51 | 1015.3 |
| 20260510132308 | 52 | 49 | 3.5 | 7.8 | 0.00 | 0.00 | 0.00 | 52 | 1015.4 |
| 20260510131804 | 52 | 37 | 4.3 | 7.0 | 0.00 | 0.00 | 0.00 | 52 | 1015.4 |
| 20260510131302 | 51 | 36 | 5.2 | 9.6 | 0.00 | 0.00 | 0.00 | 53 | 1015.4 |
| 20260510130758 | 52 | 2 | 6.1 | 7.8 | 0.00 | 0.00 | 0.00 | 54 | 1015.3 |
| 20260510130255 | 51 | 358 | 6.1 | 11.3 | 0.00 | 0.00 | 0.00 | 53 | 1015.0 |
| 20260510125752 | 51 | 39 | 7.8 | 11.3 | 0.00 | 0.00 | 0.00 | 53 | 1015.2 |
| 20260510125248 | 51 | 15 | 6.1 | 9.6 | 0.00 | 0.00 | 0.00 | 57 | 1015.1 |
| 20260510124745 | 51 | 38 | 4.3 | 9.6 | 0.00 | 0.00 | 0.00 | 58 | 1014.9 |
| 20260510124243 | 51 | 7 | 5.2 | 11.3 | 0.00 | 0.00 | 0.00 | 58 | 1014.7 |
| 20260510123743 | 51 | 355 | 8.7 | 13.0 | 0.00 | 0.00 | 0.00 | 57 | 1014.6 |
| 20260510123239 | 51 | 16 | 7.8 | 8.7 | 0.00 | 0.00 | 0.00 | 58 | 1014.7 |
| 20260510122736 | 51 | 40 | 7.0 | 7.8 | 0.00 | 0.00 | 0.00 | 60 | 1014.4 |
| 20260510122232 | 50 | 38 | 4.3 | 7.0 | 0.00 | 0.00 | 0.00 | 60 | 1014.5 |
| 20260510121728 | 50 | 22 | 6.1 | 7.8 | 0.00 | 0.00 | 0.00 | 60 | 1014.4 |
| 20260510121226 | 50 | 343 | 3.5 | 7.8 | 0.00 | 0.00 | 0.00 | 60 | 1014.3 |
| 20260510120723 | 50 | 39 | 4.3 | 8.7 | 0.00 | 0.00 | 0.00 | 58 | 1014.2 |
| 20260510120219 | 50 | 52 | 5.2 | 7.0 | 0.00 | 0.00 | 0.00 | 60 | 1014.3 |
| 20260510115715 | 50 | 42 | 2.6 | 6.1 | 0.00 | 0.00 | 0.00 | 63 | 1014.1 |
| 20260510115214 | 50 | 19 | 4.3 | 7.0 | 0.00 | 0.00 | 0.00 | 64 | 1014.0 |
| 20260510114709 | 49 | 25 | 4.3 | 7.0 | 0.00 | 0.00 | 0.00 | 64 | 1014.0 |
| 20260510114206 | 49 | 24 | 6.1 | 8.7 | 0.00 | 0.00 | 0.00 | 63 | 1013.6 |
| 20260510113700 | 49 | 31 | 5.2 | 7.0 | 0.00 | 0.00 | 0.00 | 65 | 1013.5 |
| 20260510113158 | 49 | 14 | 7.0 | 8.7 | 0.00 | 0.00 | 0.00 | 66 | 1013.4 |
| 20260510112654 | 49 | 15 | 6.1 | 7.8 | 0.00 | 0.00 | 0.00 | 66 | 1013.5 |
| 20260510112152 | 49 | 15 | 7.0 | 11.3 | 0.00 | 0.00 | 0.00 | 65 | 1013.3 |
| 20260510111648 | 49 | 36 | 2.6 | 6.1 | 0.00 | 0.00 | 0.00 | 68 | 1013.2 |
| 20260510111145 | 49 | 0 | 5.2 | 8.7 | 0.00 | 0.00 | 0.00 | 66 | 1013.1 |
| 20260510110639 | 49 | 31 | 4.3 | 8.7 | 0.00 | 0.00 | 0.00 | 71 | 1012.9 |
| 20260510110137 | 49 | 359 | 6.1 | 7.8 | 0.00 | 0.00 | 0.00 | 74 | 1012.9 |
| 20260510105633 | 49 | 346 | 5.2 | 8.7 | 0.00 | 0.00 | 0.00 | 74 | 1012.9 |
| 20260510105132 | 49 | 31 | 1.7 | 6.1 | 0.00 | 0.00 | 0.00 | 76 | 1012.8 |
| 20260510104630 | 49 | 23 | 6.1 | 7.8 | 0.00 | 0.00 | 0.00 | 77 | 1012.7 |
| 20260510104126 | 49 | 9 | 4.3 | 7.8 | 0.00 | 0.00 | 0.00 | 77 | 1012.6 |
| 20260510103623 | 50 | 6 | 5.2 | 9.6 | 0.00 | 0.00 | 0.00 | 77 | 1012.6 |
| 20260510103119 | 49 | 7 | 1.7 | 5.2 | 0.00 | 0.00 | 0.00 | 77 | 1012.5 |
| 20260510102614 | 49 | 12 | 4.3 | 6.1 | 0.00 | 0.00 | 0.00 | 76 | 1012.2 |
| 20260510102110 | 49 | 28 | 4.3 | 6.1 | 0.00 | 0.00 | 0.00 | 76 | 1011.9 |
| 20260510101608 | 50 | 15 | 1.7 | 2.6 | 0.00 | 0.00 | 0.00 | 75 | 1011.9 |
| 20260510101106 | 50 | 36 | 1.7 | 6.1 | 0.00 | 0.00 | 0.00 | 73 | 1011.7 |
| 20260510100602 | 50 | 35 | 1.7 | 5.2 | 0.00 | 0.00 | 0.00 | 72 | 1011.7 |
| 20260510100100 | 50 | 21 | 0.9 | 2.6 | 0.00 | 0.00 | 0.00 | 72 | 1011.7 |
| 20260510095556 | 49 | 39 | 1.7 | 2.6 | 0.00 | 0.00 | 0.00 | 72 | 1011.5 |
| 20260510095056 | 49 | 18 | 2.6 | 3.5 | 0.00 | 0.00 | 0.00 | 72 | 1011.4 |
| 20260510094555 | 49 | 3 | 1.7 | 2.6 | 0.00 | 0.00 | 0.00 | 72 | 1011.3 |
| 20260510094051 | 49 | 13 | 1.7 | 1.7 | 0.00 | 0.00 | 0.00 | 72 | 1011.3 |
| 20260510093547 | 49 | 14 | 0.9 | 0.9 | 0.00 | 0.00 | 0.00 | 72 | 1011.5 |
| 20260510093044 | 49 | 14 | 0.9 | 1.7 | 0.00 | 0.00 | 0.00 | 71 | 1011.0 |
| 20260510092541 | 49 | 14 | 0.9 | 1.7 | 0.00 | 0.00 | 0.00 | 71 | 1011.3 |
| 20260510092041 | 49 | 14 | 0.0 | 0.9 | 0.00 | 0.00 | 0.00 | 72 | 1011.2 |
| 20260510091538 | 49 | 15 | 1.7 | 1.7 | 0.00 | 0.00 | 0.00 | 73 | 1011.0 |
| 20260510091033 | 49 | 22 | 0.9 | 1.7 | 0.00 | 0.00 | 0.00 | 73 | 1010.9 |
| 20260510090531 | 49 | 26 | 1.7 | 1.7 | 0.00 | 0.00 | 0.00 | 74 | 1010.9 |
| 20260510090027 | 49 | 29 | 0.0 | 0.9 | 0.00 | 0.00 | 0.00 | 75 | 1010.9 |
| 20260510085527 | 49 | 29 | 0.0 | 0.9 | 0.00 | 0.00 | 0.00 | 76 | 1010.4 |
| 20260510085023 | 49 | 29 | 0.0 | 0.9 | 0.00 | 0.00 | 0.00 | 75 | 1010.8 |
| 20260510084520 | 50 | 29 | 0.0 | 0.9 | 0.00 | 0.00 | 0.00 | 76 | 1010.7 |
| 20260510084016 | 50 | 29 | 0.9 | 0.9 | 0.00 | 0.00 | 0.00 | 75 | 1010.6 |
| 20260510083513 | 50 | 29 | 0.0 | 0.0 | 0.00 | 0.00 | 0.00 | 75 | 1010.6 |
| 20260510083009 | 50 | 29 | 0.0 | 0.0 | 0.00 | 0.00 | 0.00 | 75 | 1010.4 |
| 20260510082507 | 50 | 29 | 0.9 | 0.9 | 0.00 | 0.00 | 0.00 | 75 | 1010.5 |
| 20260510082006 | 49 | 29 | 0.9 | 1.7 | 0.00 | 0.00 | 0.00 | 77 | 1010.5 |
| 20260510081502 | 49 | 30 | 0.0 | 0.9 | 0.00 | 0.00 | 0.00 | 77 | 1010.4 |
| 20260510080958 | 49 | 30 | 0.9 | 0.9 | 0.00 | 0.00 | 0.00 | 77 | 1010.1 |
| 20260510080456 | 49 | 30 | 0.0 | 0.0 | 0.00 | 0.00 | 0.00 | 78 | 1010.1 |
| 20260510075954 | 49 | 30 | 0.0 | 0.0 | 0.00 | 0.00 | 0.00 | 77 | 1010.1 |
| 20260510075451 | 49 | 30 | 0.0 | 0.0 | 0.00 | 0.00 | 0.00 | 77 | 1010.0 |
| 20260510074948 | 49 | 30 | 0.0 | 0.0 | 0.00 | 0.00 | 0.00 | 76 | 1010.0 |
| 20260510074446 | 49 | 30 | 0.0 | 0.9 | 0.00 | 0.00 | 0.00 | 76 | 1009.7 |
| 20260510073941 | 49 | 30 | 0.0 | 0.9 | 0.00 | 0.00 | 0.00 | 76 | 1009.9 |
| 20260510073437 | 49 | 30 | 0.0 | 0.0 | 0.00 | 0.00 | 0.00 | 75 | 1009.8 |
| 20260510072934 | 49 | 30 | 0.0 | 0.9 | 0.00 | 0.00 | 0.00 | 75 | 1009.7 |
| 20260510072431 | 50 | 30 | 0.0 | 0.9 | 0.00 | 0.00 | 0.00 | 75 | 1009.5 |
| 20260510071926 | 50 | 20 | 1.7 | 1.7 | 0.00 | 0.00 | 0.00 | 75 | 1009.5 |
| 20260510071423 | 50 | 19 | 0.9 | 0.9 | 0.00 | 0.00 | 0.00 | 74 | 1009.5 |
| 20260510070921 | 50 | 25 | 1.7 | 2.6 | 0.00 | 0.00 | 0.00 | 73 | 1009.2 |
| 20260510070418 | 51 | 24 | 2.6 | 2.6 | 0.00 | 0.00 | 0.00 | 73 | 1009.2 |
| 20260510065913 | 51 | 43 | 0.9 | 2.6 | 0.00 | 0.00 | 0.00 | 73 | 1009.4 |
| 20260510065410 | 51 | 74 | 0.0 | 2.6 | 0.00 | 0.00 | 0.00 | 73 | 1009.1 |
| 20260510064907 | 51 | 52 | 0.9 | 1.7 | 0.00 | 0.00 | 0.00 | 72 | 1009.2 |
| 20260510064405 | 51 | 31 | 4.3 | 6.1 | 0.00 | 0.00 | 0.00 | 72 | 1009.0 |
| 20260510063900 | 51 | 39 | 1.7 | 5.2 | 0.00 | 0.00 | 0.00 | 72 | 1009.1 |
| 20260510063357 | 51 | 23 | 0.9 | 2.6 | 0.00 | 0.00 | 0.00 | 71 | 1009.2 |
| 20260510062854 | 52 | 28 | 2.6 | 5.2 | 0.00 | 0.00 | 0.00 | 70 | 1009.0 |
| 20260510062349 | 52 | 31 | 3.5 | 6.1 | 0.00 | 0.00 | 0.00 | 68 | 1009.1 |
| 20260510061845 | 52 | 27 | 3.5 | 5.2 | 0.00 | 0.00 | 0.00 | 68 | 1009.1 |
| 20260510061342 | 53 | 46 | 1.7 | 5.2 | 0.00 | 0.00 | 0.00 | 67 | 1009.1 |
| 20260510060838 | 53 | 31 | 3.5 | 7.8 | 0.00 | 0.00 | 0.00 | 67 | 1008.7 |
| 20260510060335 | 53 | 57 | 7.0 | 9.6 | 0.00 | 0.00 | 0.00 | 68 | 1008.6 |
| 20260510055832 | 53 | 58 | 3.5 | 11.3 | 0.00 | 0.00 | 0.00 | 70 | 1008.6 |
| 20260510055331 | 53 | 45 | 3.5 | 7.0 | 0.00 | 0.00 | 0.00 | 70 | 1008.5 |
| 20260510054830 | 53 | 46 | 5.2 | 7.8 | 0.00 | 0.00 | 0.00 | 70 | 1008.6 |
| 20260510054326 | 54 | 36 | 2.6 | 2.6 | 0.00 | 0.00 | 0.00 | 70 | 1008.6 |
| 20260510053821 | 54 | 7 | 5.2 | 6.1 | 0.00 | 0.00 | 0.00 | 69 | 1008.4 |
| 20260510053317 | 54 | 11 | 5.2 | 9.6 | 0.00 | 0.00 | 0.00 | 68 | 1008.6 |
| 20260510052814 | 54 | 8 | 6.1 | 8.7 | 0.00 | 0.00 | 0.00 | 69 | 1008.3 |
| 20260510052309 | 55 | 36 | 5.2 | 11.3 | 0.00 | 0.00 | 0.00 | 67 | 1008.1 |
| 20260510051806 | 56 | 19 | 7.0 | 13.0 | 0.00 | 0.00 | 0.00 | 67 | 1008.0 |
| 20260510051302 | 57 | 12 | 5.2 | 12.2 | 0.00 | 0.00 | 0.00 | 65 | 1007.8 |
| 20260510050800 | 57 | 25 | 9.6 | 13.9 | 0.00 | 0.00 | 0.00 | 62 | 1007.6 |
| 20260510050256 | 59 | 323 | 11.3 | 20.0 | 0.00 | 0.00 | 0.00 | 61 | 1007.6 |
| 20260510045753 | 59 | 308 | 4.3 | 8.7 | 0.00 | 0.00 | 0.00 | 68 | 1007.3 |
| 20260510045250 | 59 | 249 | 2.6 | 7.0 | 0.00 | 0.00 | 0.00 | 72 | 1007.2 |
| 20260510044747 | 59 | 321 | 4.3 | 9.6 | 0.00 | 0.00 | 0.00 | 73 | 1006.9 |
| 20260510044245 | 59 | 306 | 1.7 | 6.1 | 0.00 | 0.00 | 0.00 | 74 | 1007.1 |
| 20260510043740 | 59 | 246 | 5.2 | 6.1 | 0.00 | 0.00 | 0.00 | 74 | 1006.7 |
| 20260510043237 | 59 | 231 | 4.3 | 7.0 | 0.00 | 0.00 | 0.00 | 76 | 1006.8 |
| 20260510042734 | 59 | 257 | 5.2 | 7.8 | 0.00 | 0.00 | 0.00 | 76 | 1007.0 |
| 20260510042229 | 59 | 258 | 7.8 | 11.3 | 0.00 | 0.00 | 0.00 | 76 | 1006.7 |
| 20260510041727 | 58 | 307 | 4.3 | 8.7 | 0.00 | 0.00 | 0.00 | 77 | 1006.6 |
| 20260510041224 | 58 | 256 | 3.5 | 5.2 | 0.00 | 0.00 | 0.00 | 77 | 1006.2 |
| 20260510040721 | 59 | 215 | 3.5 | 3.5 | 0.00 | 0.00 | 0.00 | 77 | 1006.0 |
| 20260510040217 | 59 | 227 | 1.7 | 2.6 | 0.00 | 0.00 | 0.00 | 76 | 1005.8 |
| 20260510035713 | 59 | 177 | 4.3 | 5.2 | 0.00 | 0.09 | 0.09 | 76 | 1005.6 |
| 20260510035209 | 59 | 215 | 1.7 | 2.6 | 0.00 | 0.09 | 0.09 | 76 | 1005.8 |
| 20260510034705 | 59 | 242 | 0.9 | 3.5 | 0.00 | 0.09 | 0.09 | 76 | 1005.9 |
| 20260510034203 | 59 | 310 | 4.3 | 5.2 | 0.00 | 0.09 | 0.09 | 76 | 1005.8 |
| 20260510033659 | 59 | 219 | 3.5 | 6.1 | 0.00 | 0.09 | 0.09 | 76 | 1005.5 |
| 20260510033157 | 59 | 207 | 2.6 | 6.1 | 0.00 | 0.09 | 0.09 | 75 | 1005.3 |
| 20260510032653 | 59 | 223 | 4.3 | 6.1 | 0.00 | 0.09 | 0.09 | 75 | 1005.3 |
| 20260510032148 | 59 | 192 | 4.3 | 5.2 | 0.00 | 0.09 | 0.09 | 75 | 1005.1 |
| 20260510031643 | 59 | 188 | 2.6 | 6.1 | 0.00 | 0.09 | 0.09 | 74 | 1005.1 |
| 20260510031141 | 59 | 180 | 3.5 | 5.2 | 0.00 | 0.09 | 0.09 | 74 | 1005.2 |
| 20260510030640 | 59 | 177 | 3.5 | 5.2 | 0.00 | 0.09 | 0.09 | 73 | 1005.0 |
| 20260510030138 | 59 | 193 | 3.5 | 6.1 | 0.00 | 0.09 | 0.09 | 72 | 1005.1 |
| 20260510025635 | 59 | 201 | 3.5 | 7.0 | 0.00 | 0.09 | 0.09 | 72 | 1005.1 |
| 20260510025132 | 59 | 213 | 2.6 | 6.1 | 0.00 | 0.09 | 0.09 | 73 | 1005.1 |
| 20260510024629 | 59 | 190 | 3.5 | 5.2 | 0.00 | 0.09 | 0.09 | 73 | 1004.9 |
| 20260510024126 | 58 | 195 | 2.6 | 5.2 | 0.00 | 0.09 | 0.09 | 75 | 1004.9 |
| 20260510023622 | 59 | 176 | 0.9 | 2.6 | 0.00 | 0.09 | 0.09 | 75 | 1005.0 |
| 20260510023119 | 59 | 179 | 2.6 | 5.2 | 0.00 | 0.09 | 0.09 | 74 | 1004.9 |
| 20260510022619 | 59 | 185 | 2.6 | 5.2 | 0.00 | 0.09 | 0.09 | 73 | 1004.7 |
| 20260510022114 | 59 | 193 | 1.7 | 2.6 | 0.00 | 0.09 | 0.09 | 73 | 1004.9 |
| 20260510021610 | 60 | 207 | 2.6 | 5.2 | 0.00 | 0.09 | 0.09 | 72 | 1004.9 |
| 20260510021108 | 60 | 205 | 2.6 | 7.8 | 0.00 | 0.09 | 0.09 | 71 | 1004.9 |
| 20260510020607 | 60 | 180 | 2.6 | 3.5 | 0.00 | 0.09 | 0.09 | 70 | 1004.7 |
| 20260510020103 | 60 | 227 | 4.3 | 6.1 | 0.00 | 0.09 | 0.09 | 69 | 1004.7 |
| 20260510015559 | 61 | 207 | 3.5 | 6.1 | 0.00 | 0.09 | 0.09 | 69 | 1004.8 |
| 20260510015056 | 61 | 239 | 3.5 | 7.8 | 0.00 | 0.09 | 0.09 | 70 | 1004.7 |
| 20260510014552 | 61 | 212 | 4.3 | 6.1 | 0.00 | 0.09 | 0.09 | 70 | 1004.9 |
| 20260510014050 | 61 | 232 | 7.0 | 7.8 | 0.00 | 0.09 | 0.09 | 70 | 1004.7 |
| 20260510013550 | 62 | 211 | 9.6 | 9.6 | 0.00 | 0.09 | 0.09 | 69 | 1004.7 |
| 20260510013046 | 62 | 230 | 7.8 | 13.9 | 0.00 | 0.09 | 0.09 | 68 | 1004.6 |
| 20260510012545 | 61 | 233 | 5.2 | 13.0 | 0.00 | 0.09 | 0.09 | 68 | 1004.6 |
| 20260510012042 | 61 | 236 | 7.0 | 8.7 | 0.00 | 0.09 | 0.09 | 70 | 1004.5 |
| 20260510011542 | 60 | 221 | 4.3 | 6.1 | 0.00 | 0.09 | 0.09 | 71 | 1004.0 |
| 20260510011038 | 60 | 212 | 3.5 | 5.2 | 0.00 | 0.09 | 0.09 | 72 | 1003.9 |
| 20260510010535 | 59 | 223 | 3.5 | 6.1 | 0.00 | 0.09 | 0.09 | 74 | 1003.9 |
| 20260510010032 | 59 | 188 | 1.7 | 3.5 | 0.00 | 0.09 | 0.09 | 75 | 1004.0 |
| 20260510005527 | 59 | 170 | 1.7 | 1.7 | 0.00 | 0.09 | 0.09 | 74 | 1003.9 |
| 20260510005025 | 60 | 186 | 2.6 | 2.6 | 0.00 | 0.09 | 0.09 | 74 | 1003.9 |
| 20260510004522 | 60 | 191 | 3.5 | 6.1 | 0.00 | 0.09 | 0.09 | 73 | 1003.9 |
| 20260510004021 | 60 | 198 | 1.7 | 5.2 | 0.00 | 0.09 | 0.09 | 73 | 1003.9 |
| 20260510003517 | 60 | 207 | 2.6 | 5.2 | 0.00 | 0.09 | 0.09 | 73 | 1003.8 |
| 20260510003012 | 60 | 182 | 1.7 | 2.6 | 0.00 | 0.09 | 0.09 | 72 | 1003.8 |
| 20260510002508 | 61 | 211 | 1.7 | 3.5 | 0.00 | 0.09 | 0.09 | 71 | 1003.9 |
| 20260510002005 | 61 | 234 | 3.5 | 3.5 | 0.00 | 0.09 | 0.09 | 71 | 1003.7 |
| 20260510001503 | 61 | 230 | 3.5 | 6.1 | 0.00 | 0.09 | 0.09 | 70 | 1003.9 |
| 20260510001001 | 61 | 229 | 5.2 | 7.8 | 0.00 | 0.09 | 0.09 | 70 | 1003.9 |
| 20260510000456 | 62 | 227 | 3.5 | 7.0 | 0.00 | 0.09 | 0.09 | 69 | 1003.9 |
| 20260509235952 | 62 | 242 | 7.0 | 8.7 | 0.00 | 0.09 | 0.09 | 69 | 1003.6 |
| 20260509235449 | 62 | 228 | 6.1 | 7.8 | 0.00 | 0.09 | 0.09 | 69 | 1003.9 |
| 20260509234945 | 62 | 234 | 7.0 | 12.2 | 0.00 | 0.09 | 0.09 | 68 | 1003.9 |
| 20260509234442 | 62 | 230 | 6.1 | 13.0 | 0.00 | 0.09 | 0.09 | 69 | 1003.7 |
| 20260509233940 | 62 | 203 | 12.2 | 19.1 | 0.00 | 0.09 | 0.09 | 69 | 1003.8 |
| 20260509233438 | 62 | 227 | 5.2 | 12.2 | 0.00 | 0.09 | 0.09 | 69 | 1003.9 |
| 20260509232933 | 62 | 244 | 12.2 | 18.2 | 0.00 | 0.09 | 0.09 | 67 | 1003.6 |
| 20260509232432 | 62 | 235 | 8.7 | 14.8 | 0.00 | 0.09 | 0.09 | 67 | 1003.7 |
| 20260509231927 | 62 | 216 | 8.7 | 13.9 | 0.00 | 0.09 | 0.09 | 69 | 1003.7 |
| 20260509231424 | 62 | 218 | 10.4 | 13.9 | 0.00 | 0.09 | 0.09 | 69 | 1003.7 |
| 20260509230922 | 61 | 236 | 7.0 | 13.0 | 0.00 | 0.09 | 0.09 | 71 | 1003.8 |
| 20260509230419 | 61 | 268 | 10.4 | 13.0 | 0.00 | 0.09 | 0.09 | 72 | 1003.5 |
| 20260509225914 | 60 | 228 | 11.3 | 15.6 | 0.07 | 0.09 | 0.09 | 75 | 1003.5 |
| 20260509225411 | 59 | 230 | 12.2 | 15.6 | 0.07 | 0.09 | 0.09 | 76 | 1003.7 |
| 20260509224907 | 59 | 248 | 8.7 | 12.2 | 0.00 | 0.08 | 0.08 | 77 | 1003.6 |
| 20260509224403 | 58 | 232 | 6.1 | 13.0 | 0.00 | 0.08 | 0.08 | 81 | 1003.8 |